Weather History for Yakima, WA

Change the Weather History Date:

Tuesday, March 26, 2013

  Actual Average Record
Temperature  
Mean Temperature 52 °F 46 °F  
Max Temperature 64 °F 59 °F 71 °F (1994)
Min Temperature 39 °F 32 °F 22 °F (1990)
Degree Days  
Heating Degree Days 13 19  
Month to date heating degree days 540 581  
Since 1 July heating degree days 4503 5108  
Cooling Degree Days 0 0  
Month to date cooling degree days 0 0  
Year to date cooling degree days 0 0  
Growing Degree Days 2 (Base 50)    
Moisture  
Dew Point 30 °F    
Average Humidity 46    
Maximum Humidity 65    
Minimum Humidity 27    
Precipitation  
Precipitation 0.00 in 0.01 in 0.31 in (1985)
Month to date precipitation 0.71 0.54  
Year to date precipitation 0.84 2.46  
Snow  
Snow 0.00 in 0.00 in 2.00 in (1971)
Month to date snowfall T 0.7  
Year to date snowfall 1.1 8.6  
Since 1 July snowfall 15.3 21.6  
Snow Depth 0.00 in    
Sea Level Pressure  
Sea Level Pressure 29.98 in    
Wind  
Wind Speed 4 mph (West)    
Max Wind Speed 10 mph    
Max Gust Speed 13 mph    
Visibility 10 miles    
Events      
T = Trace of Precipitation, MM = Missing Value Source: NWS Daily Summary

Daily Weather History Graph

Daily Weather History Graph

Search for Another Location

Airport:

Trip Planner

Search our weather history database for the weather conditions in past years. The results will help you decide how hot, cold, wet, or windy it might be!

Date:

Astronomy

Mar. 26, 2013 Rise Set
Actual Time 6:52 AM PDT 7:23 PM PDT
Civil Twilight 6:22 AM PDT 7:53 PM PDT
Nautical Twilight 5:46 AM PDT 8:29 PM PDT
Astronomical Twilight 5:09 AM PDT 9:07 PM PDT
Moon 7:07 PM PDT (3/26) 6:12 AM PDT (3/26)
Length of Visible Light 13h 31m
Length of Day
12h 30m
Full, 100% of the Moon is Illuminated
Mar 26
Full
Mar 27
Full
Apr 2
Last Quarter
Apr 10
New
Apr 18
First Quarter

Hourly Weather History & Observations

Time (PDT) Temp. Windchill Dew Point Humidity Pressure Visibility Wind Dir Wind Speed Gust Speed Precip Events Conditions
12:53 AM 42.1 °F 40.2 °F 28.9 °F 60% 30.01 in 10.0 mi West 3.5 mph - N/A   Overcast
1:53 AM 44.1 °F 41.5 °F 28.0 °F 53% 30.00 in 10.0 mi West 4.6 mph - N/A   Overcast
2:53 AM 43.0 °F 38.8 °F 28.0 °F 56% 30.00 in 10.0 mi WNW 6.9 mph - N/A   Overcast
3:53 AM 43.0 °F 38.8 °F 28.0 °F 56% 30.00 in 10.0 mi West 6.9 mph - N/A   Overcast
4:53 AM 41.0 °F 35.8 °F 28.9 °F 62% 30.00 in 10.0 mi West 8.1 mph - N/A   Mostly Cloudy
5:53 AM 41.0 °F 36.4 °F 30.0 °F 65% 30.00 in 10.0 mi West 6.9 mph - N/A   Overcast
6:53 AM 41.0 °F 35.8 °F 28.9 °F 62% 30.01 in 10.0 mi West 8.1 mph - N/A   Scattered Clouds
7:53 AM 43.0 °F 38.8 °F 30.0 °F 60% 30.02 in 10.0 mi West 6.9 mph - N/A   Mostly Cloudy
8:53 AM 46.0 °F 43.1 °F 30.0 °F 54% 30.03 in 10.0 mi West 5.8 mph - N/A   Scattered Clouds
9:53 AM 50.0 °F - 28.9 °F 44% 30.03 in 10.0 mi West 4.6 mph - N/A   Clear
10:53 AM 54.0 °F - 28.9 °F 38% 30.01 in 10.0 mi Calm Calm - N/A   Partly Cloudy
11:53 AM 57.9 °F - 28.0 °F 32% 30.01 in 10.0 mi North 3.5 mph - N/A   Partly Cloudy
12:53 PM 59.0 °F - 27.0 °F 29% 30.00 in 10.0 mi Calm Calm - N/A   Clear
1:53 PM 61.0 °F - 28.9 °F 30% 29.98 in 10.0 mi Variable 4.6 mph - N/A   Clear
2:53 PM 61.0 °F - 30.0 °F 31% 29.96 in 10.0 mi Variable 5.8 mph - N/A   Clear
3:53 PM 62.1 °F - 28.9 °F 29% 29.95 in 10.0 mi Variable 4.6 mph - N/A   Clear
4:53 PM 61.0 °F - 28.9 °F 30% 29.95 in 10.0 mi Calm Calm - N/A   Scattered Clouds
5:53 PM 60.1 °F - 30.0 °F 32% 29.94 in 10.0 mi South 5.8 mph - N/A   Mostly Cloudy
6:53 PM 59.0 °F - 30.9 °F 35% 29.94 in 10.0 mi SE 3.5 mph - N/A   Partly Cloudy
7:53 PM 57.0 °F - 30.9 °F 37% 29.94 in 10.0 mi Calm Calm - N/A   Mostly Cloudy
8:53 PM 57.0 °F - 30.0 °F 36% 29.94 in 10.0 mi East 3.5 mph - N/A   Overcast
9:53 PM 55.0 °F - 32.0 °F 42% 29.95 in 10.0 mi ENE 4.6 mph - N/A   Overcast
10:53 PM 50.0 °F - 34.0 °F 54% 29.95 in 10.0 mi Calm Calm - N/A   Mostly Cloudy
11:53 PM 48.9 °F - 36.0 °F 61% 29.95 in 10.0 mi West 5.8 mph - N/A   Overcast